SPK125 PGUM-PHNL

Flight info

Callsign SPK125
Flight time 7h 1m
Altitude 37000
Route UNZ A450 BAGBE A450 KATHS OPACA4
Aircraft B789/H-L/S

Departure

Time 2026-04-26 15:34
Airport Antonio B. Won Pat International Airport (PGUM)

Arrival

Time 2026-04-26 22:36
Airport Daniel K. Inouye International Airport (PHNL)
Time Latitude Longitude Altitude Speed Heading
2026-04-26 15:04 13.49250 144.80699 311 ft 0 kts 331°
2026-04-26 15:21 13.49249 144.80699 311 ft 2 kts 331°
2026-04-26 15:21 13.49227 144.80712 311 ft 4 kts 331°
2026-04-26 15:22 13.49204 144.80725 311 ft 4 kts 331°
2026-04-26 15:22 13.49192 144.80732 311 ft 1 kts 331°
2026-04-26 15:22 13.49191 144.80733 311 ft 0 kts 331°
2026-04-26 15:26 13.49194 144.80731 311 ft 1 kts 321°
2026-04-26 15:26 13.49196 144.80718 311 ft 2 kts 257°
2026-04-26 15:26 13.49178 144.80700 311 ft 6 kts 221°
2026-04-26 15:26 13.49131 144.80654 311 ft 12 kts 236°
2026-04-26 15:27 13.49086 144.80570 311 ft 13 kts 241°
2026-04-26 15:27 13.49042 144.80489 311 ft 14 kts 238°
2026-04-26 15:27 13.48973 144.80407 311 ft 16 kts 222°
2026-04-26 15:27 13.48894 144.80314 311 ft 18 kts 239°
2026-04-26 15:28 13.48838 144.80201 311 ft 15 kts 245°
2026-04-26 15:28 13.48790 144.80094 311 ft 18 kts 245°
2026-04-26 15:28 13.48735 144.79974 311 ft 19 kts 245°
2026-04-26 15:28 13.48674 144.79842 311 ft 21 kts 245°
2026-04-26 15:29 13.48615 144.79713 311 ft 15 kts 244°
2026-04-26 15:29 13.48566 144.79607 311 ft 18 kts 244°
2026-04-26 15:29 13.48451 144.79358 311 ft 21 kts 244°
2026-04-26 15:30 13.48318 144.79068 311 ft 24 kts 246°
2026-04-26 15:30 13.48251 144.78910 311 ft 24 kts 246°
2026-04-26 15:30 13.48179 144.78749 311 ft 25 kts 245°
2026-04-26 15:31 13.48102 144.78585 311 ft 26 kts 244°
2026-04-26 15:31 13.47987 144.78339 311 ft 20 kts 245°
2026-04-26 15:31 13.47942 144.78239 311 ft 11 kts 245°
2026-04-26 15:32 13.47884 144.78132 311 ft 14 kts 212°
2026-04-26 15:32 13.47796 144.78172 311 ft 4 kts 91°
2026-04-26 15:32 13.47805 144.78206 311 ft 5 kts 65°
2026-04-26 15:33 13.47806 144.78208 311 ft 0 kts 65°
2026-04-26 15:33 13.47807 144.78211 311 ft 4 kts 65°
2026-04-26 15:33 13.47881 144.78374 311 ft 63 kts 65°
2026-04-26 15:33 13.48191 144.79051 311 ft 143 kts 65°
2026-04-26 15:34 13.48704 144.80173 350 ft 198 kts 65°
2026-04-26 15:34 13.49291 144.81478 1095 ft 200 kts 65°
2026-04-26 15:34 13.49844 144.82809 2078 ft 206 kts 68°
2026-04-26 15:34 13.50305 144.84246 2962 ft 216 kts 72°
2026-04-26 15:35 13.50763 144.85745 3956 ft 223 kts 73°
2026-04-26 15:35 13.51244 144.87273 4927 ft 228 kts 73°
2026-04-26 15:35 13.51753 144.88853 5527 ft 239 kts 73°
2026-04-26 15:35 13.52302 144.90525 6048 ft 255 kts 72°
2026-04-26 15:36 13.52889 144.92284 6680 ft 265 kts 72°
2026-04-26 15:36 13.53495 144.94103 7377 ft 273 kts 72°
2026-04-26 15:36 13.54110 144.95938 8093 ft 278 kts 72°
2026-04-26 15:36 13.54746 144.97834 8823 ft 283 kts 72°
2026-04-26 15:37 13.55393 144.99759 9545 ft 287 kts 72°
2026-04-26 15:37 13.56052 145.01713 10231 ft 292 kts 72°
2026-04-26 15:37 13.56731 145.03735 10633 ft 308 kts 72°
2026-04-26 15:37 13.57451 145.05876 10948 ft 325 kts 72°
2026-04-26 15:38 13.58207 145.08130 11227 ft 343 kts 72°
2026-04-26 15:38 13.59005 145.10503 11477 ft 359 kts 72°
2026-04-26 15:38 13.59836 145.12978 11807 ft 372 kts 72°
2026-04-26 15:38 13.60692 145.15525 12259 ft 381 kts 72°
2026-04-26 15:39 13.61563 145.18113 12830 ft 386 kts 72°
2026-04-26 15:39 13.62444 145.20732 13430 ft 389 kts 72°
2026-04-26 15:39 13.63332 145.23373 14047 ft 392 kts 72°
2026-04-26 15:39 13.63633 145.24269 14254 ft 393 kts 72°
2026-04-26 15:40 13.65123 145.28706 15269 ft 397 kts 72°
2026-04-26 15:40 13.65729 145.30483 15661 ft 399 kts 71°
2026-04-26 15:40 13.66673 145.33175 16219 ft 402 kts 70°
2026-04-26 15:40 13.67637 145.35893 16736 ft 406 kts 70°
2026-04-26 15:41 13.68609 145.38631 17255 ft 410 kts 70°
2026-04-26 15:41 13.69586 145.41390 17807 ft 412 kts 70°
2026-04-26 15:41 13.70567 145.44167 18340 ft 414 kts 70°
2026-04-26 15:41 13.71552 145.46961 18850 ft 417 kts 70°
2026-04-26 15:42 13.72545 145.49779 19334 ft 420 kts 70°
2026-04-26 15:42 13.73544 145.52617 19794 ft 424 kts 70°
2026-04-26 15:42 13.74553 145.55481 20244 ft 428 kts 70°
2026-04-26 15:42 13.75569 145.58368 20699 ft 431 kts 70°
2026-04-26 15:43 13.76593 145.61274 21160 ft 434 kts 70°
2026-04-26 15:43 13.77622 145.64198 21625 ft 436 kts 70°
2026-04-26 15:43 13.79698 145.70109 22497 ft 442 kts 70°
2026-04-26 15:44 13.80746 145.73094 22910 ft 446 kts 70°
2026-04-26 15:44 13.82862 145.79125 23783 ft 451 kts 70°
2026-04-26 15:44 13.83930 145.82170 24193 ft 454 kts 70°
2026-04-26 15:45 13.86083 145.88312 25008 ft 459 kts 69°
2026-04-26 15:45 13.87168 145.91412 25415 ft 462 kts 69°
2026-04-26 15:46 13.89356 145.97660 26197 ft 467 kts 69°
2026-04-26 15:46 13.90458 146.00812 26572 ft 469 kts 69°
2026-04-26 15:46 13.91567 146.03979 26950 ft 472 kts 69°
2026-04-26 15:46 13.92305 146.06087 27200 ft 473 kts 69°
2026-04-26 15:47 13.93803 146.10365 27696 ft 477 kts 69°
2026-04-26 15:47 13.96059 146.16820 28407 ft 482 kts 68°
2026-04-26 15:47 13.97195 146.20076 28748 ft 484 kts 68°
2026-04-26 15:48 13.98335 146.23344 29092 ft 487 kts 68°
2026-04-26 15:48 13.99483 146.26638 29425 ft 490 kts 68°
2026-04-26 15:48 14.00636 146.29946 29768 ft 492 kts 68°
2026-04-26 15:48 14.01794 146.33272 30117 ft 494 kts 68°
2026-04-26 15:49 14.02957 146.36613 30464 ft 497 kts 68°
2026-04-26 15:49 14.04124 146.39966 30805 ft 499 kts 68°
2026-04-26 15:49 14.05297 146.43338 31149 ft 501 kts 68°
2026-04-26 15:49 14.06467 146.46716 31579 ft 501 kts 68°
2026-04-26 15:50 14.07620 146.50049 32035 ft 500 kts 68°
2026-04-26 15:50 14.08801 146.53463 32505 ft 499 kts 68°
2026-04-26 15:50 14.09966 146.56826 32955 ft 498 kts 68°
2026-04-26 15:50 14.11129 146.60183 33390 ft 497 kts 68°
2026-04-26 15:51 14.12275 146.63488 33823 ft 496 kts 68°
2026-04-26 15:51 14.13432 146.66827 34250 ft 495 kts 68°
2026-04-26 15:51 14.14588 146.70159 34658 ft 494 kts 68°
2026-04-26 15:51 14.15743 146.73492 35037 ft 494 kts 68°
2026-04-26 15:52 14.16896 146.76821 35416 ft 493 kts 68°
2026-04-26 15:52 14.18048 146.80148 35785 ft 493 kts 69°
2026-04-26 15:52 14.19196 146.83469 36149 ft 492 kts 69°
2026-04-26 15:52 14.19956 146.85670 36365 ft 492 kts 69°
2026-04-26 15:53 14.21488 146.90108 36749 ft 492 kts 69°
2026-04-26 15:53 14.22632 146.93428 36887 ft 491 kts 69°
2026-04-26 15:53 14.23777 146.96750 36908 ft 493 kts 69°
2026-04-26 15:54 14.26074 147.03421 36923 ft 494 kts 69°
2026-04-26 15:54 14.28372 147.10097 36931 ft 495 kts 69°
2026-04-26 15:55 14.30669 147.16781 36922 ft 495 kts 69°
2026-04-26 15:55 14.32967 147.23470 36926 ft 495 kts 69°
2026-04-26 15:56 14.35264 147.30166 36931 ft 495 kts 69°
2026-04-26 15:56 14.37561 147.36868 36919 ft 496 kts 69°
2026-04-26 15:57 14.39856 147.43572 36931 ft 496 kts 70°
2026-04-26 15:57 14.42153 147.50281 36925 ft 496 kts 69°
2026-04-26 15:58 14.44450 147.56992 36922 ft 496 kts 70°
2026-04-26 15:58 14.46722 147.63720 36933 ft 497 kts 70°
2026-04-26 15:59 14.48841 147.70506 36919 ft 497 kts 71°
2026-04-26 15:59 14.50915 147.77308 36929 ft 497 kts 71°
2026-04-26 16:00 14.52990 147.84109 36926 ft 497 kts 71°
2026-04-26 16:00 14.55053 147.90868 36920 ft 497 kts 71°
2026-04-26 16:01 14.57128 147.97673 36932 ft 497 kts 71°
2026-04-26 16:01 14.59204 148.04484 36919 ft 499 kts 72°
2026-04-26 16:02 14.61286 148.11322 36927 ft 499 kts 72°
2026-04-26 16:02 14.63364 148.18163 36927 ft 499 kts 72°
2026-04-26 16:03 14.65443 148.25006 36917 ft 499 kts 72°
2026-04-26 16:03 14.67521 148.31853 36930 ft 500 kts 72°
2026-04-26 16:04 14.69596 148.38704 36920 ft 500 kts 72°
2026-04-26 16:04 14.71669 148.45559 36922 ft 500 kts 72°
2026-04-26 16:05 14.73742 148.52419 36929 ft 500 kts 72°
2026-04-26 16:05 14.75814 148.59284 36916 ft 501 kts 72°
2026-04-26 16:06 14.77886 148.66156 36927 ft 501 kts 72°
2026-04-26 16:06 14.79958 148.73037 36923 ft 502 kts 72°
2026-04-26 16:07 14.82032 148.79931 36917 ft 502 kts 72°
2026-04-26 16:07 14.84105 148.86831 36929 ft 503 kts 72°
2026-04-26 16:08 14.86177 148.93737 36917 ft 503 kts 72°
2026-04-26 16:08 14.88170 149.00613 36922 ft 503 kts 74°
2026-04-26 16:09 14.90083 149.07630 36927 ft 504 kts 74°
2026-04-26 16:09 14.91966 149.14609 36914 ft 504 kts 75°
2026-04-26 16:10 14.93843 149.21553 36927 ft 505 kts 75°
2026-04-26 16:10 14.95733 149.28547 36919 ft 505 kts 75°
2026-04-26 16:11 14.97623 149.35547 36918 ft 506 kts 75°
2026-04-26 16:11 14.99515 149.42551 36926 ft 505 kts 75°
2026-04-26 16:12 15.01406 149.49565 36915 ft 506 kts 75°
2026-04-26 16:12 15.04234 149.60087 36927 ft 506 kts 75°
2026-04-26 16:13 15.06117 149.67102 36913 ft 507 kts 75°
2026-04-26 16:13 15.08001 149.74129 36921 ft 507 kts 75°
2026-04-26 16:14 15.09881 149.81154 36922 ft 507 kts 75°
2026-04-26 16:15 15.12698 149.91690 36919 ft 506 kts 75°
2026-04-26 16:15 15.14572 149.98715 36923 ft 506 kts 75°
2026-04-26 16:16 15.17391 150.09291 36922 ft 510 kts 75°
2026-04-26 16:16 15.19270 150.16362 36929 ft 509 kts 76°
2026-04-26 16:17 15.21147 150.23431 36916 ft 509 kts 76°
2026-04-26 16:17 15.23021 150.30499 36927 ft 509 kts 76°
2026-04-26 16:18 15.25831 150.41107 36916 ft 509 kts 76°
2026-04-26 16:19 15.28622 150.51672 36929 ft 509 kts 76°
2026-04-26 16:20 15.31422 150.62289 36915 ft 509 kts 76°
2026-04-26 16:20 15.34217 150.72912 36924 ft 510 kts 76°
2026-04-26 16:21 15.36078 150.79996 36914 ft 510 kts 76°
2026-04-26 16:21 15.37937 150.87082 36927 ft 510 kts 76°
2026-04-26 16:22 15.39795 150.94173 36917 ft 510 kts 76°
2026-04-26 16:22 15.41650 151.01265 36918 ft 510 kts 76°
2026-04-26 16:23 15.43506 151.08369 36927 ft 511 kts 76°
2026-04-26 16:23 15.45361 151.15477 36913 ft 511 kts 76°
2026-04-26 16:24 15.47213 151.22586 36922 ft 511 kts 76°
2026-04-26 16:24 15.49063 151.29693 36921 ft 511 kts 76°
2026-04-26 16:25 15.50910 151.36805 36913 ft 511 kts 76°
2026-04-26 16:25 15.52758 151.43929 36926 ft 512 kts 76°
2026-04-26 16:26 15.54293 151.49853 36918 ft 512 kts 76°
2026-04-26 16:26 15.56137 151.56980 36916 ft 511 kts 76°
2026-04-26 16:27 15.57974 151.64090 36926 ft 511 kts 76°
2026-04-26 16:27 15.59810 151.71208 36913 ft 511 kts 76°
2026-04-26 16:28 15.61644 151.78323 36912 ft 511 kts 76°
2026-04-26 16:28 15.63475 151.85440 36916 ft 511 kts 76°
2026-04-26 16:29 15.65303 151.92558 36927 ft 511 kts 76°
2026-04-26 16:29 15.67129 151.99678 36937 ft 511 kts 76°
2026-04-26 16:30 15.68950 152.06800 36924 ft 511 kts 76°
2026-04-26 16:30 15.70771 152.13923 36934 ft 511 kts 76°
2026-04-26 16:31 15.72593 152.21049 36932 ft 511 kts 76°
2026-04-26 16:31 15.74414 152.28174 36925 ft 511 kts 76°
2026-04-26 16:32 15.76231 152.35305 36937 ft 512 kts 76°
2026-04-26 16:32 15.78044 152.42435 36926 ft 511 kts 76°
2026-04-26 16:33 15.79843 152.49521 36931 ft 511 kts 76°
2026-04-26 16:33 15.81651 152.56659 36935 ft 511 kts 76°
2026-04-26 16:34 15.83458 152.63797 36924 ft 511 kts 76°
2026-04-26 16:34 15.85265 152.70942 36936 ft 511 kts 76°
2026-04-26 16:35 15.87069 152.78088 36929 ft 512 kts 76°
2026-04-26 16:35 15.88871 152.85237 36927 ft 512 kts 76°
2026-04-26 16:36 15.90672 152.92392 36938 ft 512 kts 76°
2026-04-26 16:36 15.92471 152.99549 36925 ft 512 kts 76°
2026-04-26 16:37 15.94267 153.06705 36933 ft 512 kts 76°
2026-04-26 16:37 15.96058 153.13856 36932 ft 511 kts 76°
2026-04-26 16:38 15.97837 153.20959 36926 ft 511 kts 76°
2026-04-26 16:38 15.99628 153.28112 36938 ft 511 kts 76°
2026-04-26 16:39 16.01412 153.35260 36927 ft 510 kts 76°
2026-04-26 16:39 16.03188 153.42391 36931 ft 509 kts 76°
2026-04-26 16:40 16.04961 153.49518 36938 ft 510 kts 76°
2026-04-26 16:40 16.06732 153.56650 36925 ft 509 kts 76°
2026-04-26 16:41 16.08501 153.63784 36936 ft 510 kts 76°
2026-04-26 16:41 16.10269 153.70922 36932 ft 510 kts 76°
2026-04-26 16:42 16.12033 153.78059 36928 ft 510 kts 76°
2026-04-26 16:42 16.13792 153.85200 36939 ft 510 kts 76°
2026-04-26 16:43 16.15547 153.92343 36927 ft 510 kts 76°
2026-04-26 16:43 16.17303 153.99483 36935 ft 510 kts 76°
2026-04-26 16:44 16.19058 154.06627 36936 ft 510 kts 76°
2026-04-26 16:44 16.20811 154.13773 36926 ft 510 kts 76°
2026-04-26 16:45 16.22561 154.20918 36940 ft 510 kts 76°
2026-04-26 16:45 16.24310 154.28068 36931 ft 510 kts 76°
2026-04-26 16:46 16.26056 154.35217 36931 ft 510 kts 76°
2026-04-26 16:46 16.27789 154.42329 36942 ft 510 kts 76°
2026-04-26 16:47 16.29532 154.49478 36927 ft 510 kts 76°
2026-04-26 16:47 16.31274 154.56630 36938 ft 510 kts 76°
2026-04-26 16:48 16.33012 154.63783 36935 ft 510 kts 76°
2026-04-26 16:48 16.34746 154.70939 36929 ft 511 kts 75°
2026-04-26 16:49 16.36480 154.78108 36942 ft 510 kts 75°
2026-04-26 16:49 16.38211 154.85275 36930 ft 510 kts 75°
2026-04-26 16:50 16.39938 154.92438 36937 ft 510 kts 75°
2026-04-26 16:50 16.41665 154.99610 36941 ft 511 kts 75°
2026-04-26 16:51 16.43390 155.06784 36929 ft 510 kts 75°
2026-04-26 16:51 16.45112 155.13957 36942 ft 510 kts 75°
2026-04-26 16:52 16.46541 155.19921 36937 ft 511 kts 75°
2026-04-26 16:52 16.48550 155.28318 36931 ft 511 kts 75°
2026-04-26 16:53 16.50266 155.35502 36909 ft 511 kts 75°
2026-04-26 16:53 16.51950 155.42562 36898 ft 511 kts 75°
2026-04-26 16:54 16.53650 155.49704 36908 ft 511 kts 75°
2026-04-26 16:54 16.55360 155.56897 36905 ft 511 kts 75°
2026-04-26 16:55 16.57065 155.64100 36901 ft 512 kts 75°
2026-04-26 16:55 16.58771 155.71307 36913 ft 512 kts 75°
2026-04-26 16:56 16.61330 155.82112 36901 ft 512 kts 75°
2026-04-26 16:57 16.63031 155.89316 36914 ft 512 kts 75°
2026-04-26 16:57 16.65577 156.00126 36902 ft 511 kts 75°
2026-04-26 16:58 16.66992 156.06148 36910 ft 509 kts 75°
2026-04-26 16:59 16.69791 156.18080 36902 ft 510 kts 75°
2026-04-26 17:00 16.73147 156.32431 36900 ft 508 kts 75°
2026-04-26 17:00 16.75653 156.43182 36915 ft 509 kts 75°
2026-04-26 17:01 16.77320 156.50348 36903 ft 507 kts 75°
2026-04-26 17:01 16.78982 156.57502 36911 ft 508 kts 75°
2026-04-26 17:02 16.80642 156.64660 36914 ft 507 kts 75°
2026-04-26 17:02 16.82296 156.71801 36903 ft 506 kts 75°
2026-04-26 17:03 16.83947 156.78947 36918 ft 506 kts 75°
2026-04-26 17:03 16.85594 156.86082 36911 ft 505 kts 75°
2026-04-26 17:04 16.87236 156.93207 36911 ft 505 kts 75°
2026-04-26 17:04 16.88875 157.00336 36921 ft 505 kts 75°
2026-04-26 17:05 16.90510 157.07455 36908 ft 503 kts 75°
2026-04-26 17:05 16.92129 157.14518 36920 ft 504 kts 75°
2026-04-26 17:06 16.93756 157.21626 36919 ft 503 kts 75°
2026-04-26 17:06 16.95377 157.28722 36912 ft 502 kts 75°
2026-04-26 17:07 16.96995 157.35819 36926 ft 502 kts 75°
2026-04-26 17:07 16.98611 157.42917 36915 ft 502 kts 75°
2026-04-26 17:08 17.00223 157.50008 36921 ft 502 kts 75°
2026-04-26 17:08 17.01832 157.57094 36926 ft 501 kts 75°
2026-04-26 17:09 17.02907 157.61830 36917 ft 501 kts 75°
2026-04-26 17:09 17.05038 157.71245 36929 ft 500 kts 76°
2026-04-26 17:10 17.06634 157.78318 36924 ft 500 kts 76°
2026-04-26 17:10 17.08227 157.85387 36922 ft 499 kts 76°
2026-04-26 17:11 17.09815 157.92448 36933 ft 499 kts 76°
2026-04-26 17:11 17.11401 157.99508 36922 ft 498 kts 76°
2026-04-26 17:12 17.13760 158.10037 36933 ft 493 kts 76°
2026-04-26 17:13 17.16104 158.20524 36923 ft 493 kts 76°
2026-04-26 17:14 17.18178 158.29825 36942 ft 493 kts 76°
2026-04-26 17:14 17.20508 158.40303 36935 ft 493 kts 76°
2026-04-26 17:15 17.22830 158.50772 36948 ft 492 kts 76°
2026-04-26 17:16 17.24375 158.57749 36938 ft 492 kts 76°
2026-04-26 17:16 17.25915 158.64717 36942 ft 492 kts 76°
2026-04-26 17:17 17.27452 158.71688 36950 ft 492 kts 76°
2026-04-26 17:17 17.28984 158.78654 36937 ft 491 kts 77°
2026-04-26 17:18 17.30510 158.85610 36949 ft 490 kts 76°
2026-04-26 17:18 17.32034 158.92559 36946 ft 490 kts 77°
2026-04-26 17:19 17.34314 159.02971 36949 ft 488 kts 77°
2026-04-26 17:19 17.35828 159.09900 36950 ft 488 kts 77°
2026-04-26 17:20 17.37086 159.15655 36941 ft 487 kts 77°
2026-04-26 17:20 17.38838 159.23681 36954 ft 487 kts 77°
2026-04-26 17:21 17.40339 159.30583 36947 ft 485 kts 77°
2026-04-26 17:21 17.41834 159.37474 36949 ft 485 kts 77°
2026-04-26 17:22 17.43325 159.44355 36956 ft 484 kts 77°
2026-04-26 17:22 17.44811 159.51226 36944 ft 483 kts 77°
2026-04-26 17:23 17.46290 159.58084 36955 ft 482 kts 77°
2026-04-26 17:23 17.47762 159.64933 36958 ft 481 kts 77°
2026-04-26 17:24 17.49234 159.71770 36947 ft 481 kts 77°
2026-04-26 17:24 17.50701 159.78598 36960 ft 480 kts 77°
2026-04-26 17:25 17.52164 159.85421 36953 ft 479 kts 77°
2026-04-26 17:25 17.53621 159.92231 36954 ft 479 kts 77°
2026-04-26 17:26 17.55077 159.99048 36963 ft 479 kts 77°
2026-04-26 17:26 17.56527 160.05850 36951 ft 477 kts 77°
2026-04-26 17:27 17.57971 160.12633 36961 ft 477 kts 77°
2026-04-26 17:27 17.59414 160.19422 36962 ft 477 kts 77°
2026-04-26 17:28 17.60855 160.26210 36954 ft 477 kts 77°
2026-04-26 17:28 17.62293 160.33003 36967 ft 477 kts 77°
2026-04-26 17:29 17.63486 160.38650 36962 ft 477 kts 77°
2026-04-26 17:29 17.65164 160.46604 36962 ft 478 kts 77°
2026-04-26 17:30 17.66598 160.53413 36970 ft 478 kts 77°
2026-04-26 17:30 17.68020 160.60179 36958 ft 478 kts 77°
2026-04-26 17:31 17.69449 160.66989 36970 ft 478 kts 77°
2026-04-26 17:31 17.70877 160.73805 36967 ft 479 kts 77°
2026-04-26 17:32 17.72301 160.80616 36963 ft 477 kts 77°
2026-04-26 17:32 17.73722 160.87423 36976 ft 478 kts 77°
2026-04-26 17:33 17.75140 160.94230 36966 ft 477 kts 77°
2026-04-26 17:34 17.77257 161.04417 36976 ft 477 kts 77°
2026-04-26 17:34 17.78666 161.11211 36971 ft 476 kts 77°
2026-04-26 17:35 17.80070 161.17989 36968 ft 476 kts 77°
2026-04-26 17:35 17.81471 161.24771 36981 ft 475 kts 77°
2026-04-26 17:36 17.82867 161.31540 36968 ft 475 kts 77°
2026-04-26 17:36 17.84260 161.38306 36979 ft 473 kts 77°
2026-04-26 17:37 17.85649 161.45065 36979 ft 473 kts 77°
2026-04-26 17:37 17.87030 161.51800 36969 ft 471 kts 77°
2026-04-26 17:38 17.89098 161.61898 36984 ft 471 kts 77°
2026-04-26 17:38 17.90472 161.68619 36972 ft 471 kts 77°
2026-04-26 17:39 17.91832 161.75293 36987 ft 470 kts 77°
2026-04-26 17:39 17.93194 161.82000 36977 ft 470 kts 77°
2026-04-26 17:40 17.94333 161.87619 36980 ft 469 kts 77°
2026-04-26 17:40 17.95910 161.95400 36989 ft 469 kts 77°
2026-04-26 17:41 17.97267 162.02100 36977 ft 469 kts 77°
2026-04-26 17:41 17.98622 162.08798 36989 ft 469 kts 77°
2026-04-26 17:42 17.99973 162.15499 36988 ft 469 kts 77°
2026-04-26 17:42 18.01321 162.22200 36981 ft 469 kts 78°
2026-04-26 17:43 18.02666 162.28903 36995 ft 469 kts 77°
2026-04-26 17:43 18.04011 162.35610 36984 ft 470 kts 78°
2026-04-26 17:44 18.05356 162.42330 36991 ft 470 kts 77°
2026-04-26 17:44 18.06696 162.49035 36994 ft 469 kts 77°
2026-04-26 17:45 18.08033 162.55744 36985 ft 469 kts 77°
2026-04-26 17:45 18.09368 162.62454 36998 ft 469 kts 77°
2026-04-26 17:46 18.10700 162.69159 36992 ft 468 kts 77°
2026-04-26 17:46 18.12030 162.75869 36993 ft 469 kts 77°
2026-04-26 17:47 18.12909 162.80315 37002 ft 469 kts 77°
2026-04-26 17:47 18.14672 162.89240 36989 ft 468 kts 77°
2026-04-26 17:48 18.15991 162.95944 37002 ft 468 kts 77°
2026-04-26 17:48 18.17306 163.02651 37000 ft 468 kts 77°
2026-04-26 17:49 18.18620 163.09342 36992 ft 467 kts 77°
2026-04-26 17:49 18.19936 163.16040 37007 ft 468 kts 77°
2026-04-26 17:50 18.21246 163.22735 36998 ft 467 kts 77°
2026-04-26 17:50 18.22551 163.29423 37001 ft 467 kts 77°
2026-04-26 17:51 18.23854 163.36108 37009 ft 466 kts 77°
2026-04-26 17:51 18.25152 163.42784 36997 ft 466 kts 77°
2026-04-26 17:52 18.26447 163.49459 37011 ft 465 kts 77°
2026-04-26 17:52 18.27738 163.56124 37004 ft 465 kts 77°
2026-04-26 17:53 18.29027 163.62792 37004 ft 465 kts 77°
2026-04-26 17:54 18.30955 163.72790 37007 ft 464 kts 77°
2026-04-26 17:54 18.32235 163.79447 37006 ft 464 kts 77°
2026-04-26 17:55 18.33515 163.86108 37017 ft 464 kts 77°
2026-04-26 17:55 18.34791 163.92770 37004 ft 464 kts 77°
2026-04-26 17:56 18.36065 163.99431 37014 ft 464 kts 77°
2026-04-26 17:57 18.38602 164.12736 37008 ft 463 kts 77°
2026-04-26 17:57 18.39859 164.19346 37021 ft 464 kts 77°
2026-04-26 17:58 18.42383 164.32666 37016 ft 465 kts 77°
2026-04-26 17:59 18.44274 164.42677 37012 ft 465 kts 77°
2026-04-26 17:59 18.45531 164.49348 37016 ft 464 kts 77°
2026-04-26 18:00 18.46787 164.56023 37023 ft 465 kts 77°
2026-04-26 18:00 18.48040 164.62700 37011 ft 465 kts 77°
2026-04-26 18:01 18.49291 164.69377 37024 ft 465 kts 77°
2026-04-26 18:01 18.50329 164.74930 37022 ft 465 kts 77°
2026-04-26 18:02 18.51373 164.80526 37013 ft 465 kts 77°
2026-04-26 18:02 18.52819 164.88291 37027 ft 465 kts 77°
2026-04-26 18:03 18.54062 164.94979 37018 ft 465 kts 77°
2026-04-26 18:03 18.55302 165.01666 37021 ft 465 kts 77°
2026-04-26 18:04 18.56540 165.08352 37029 ft 465 kts 77°
2026-04-26 18:05 18.58392 165.18386 37021 ft 464 kts 77°
2026-04-26 18:05 18.59620 165.25059 37030 ft 464 kts 77°
2026-04-26 18:06 18.60848 165.31737 37019 ft 464 kts 77°
2026-04-26 18:06 18.62072 165.38412 37027 ft 464 kts 77°
2026-04-26 18:07 18.63294 165.45089 37029 ft 464 kts 77°
2026-04-26 18:07 18.64515 165.51775 37020 ft 464 kts 77°
2026-04-26 18:08 18.65721 165.58397 37032 ft 463 kts 77°
2026-04-26 18:08 18.66944 165.65116 37026 ft 463 kts 77°
2026-04-26 18:09 18.68147 165.71743 37023 ft 463 kts 77°
2026-04-26 18:09 18.69355 165.78414 37034 ft 463 kts 77°
2026-04-26 18:10 18.70561 165.85090 37022 ft 463 kts 77°
2026-04-26 18:10 18.71765 165.91765 37030 ft 463 kts 77°
2026-04-26 18:11 18.72967 165.98443 37032 ft 463 kts 77°
2026-04-26 18:11 18.74165 166.05116 37022 ft 462 kts 77°
2026-04-26 18:12 18.75359 166.11781 37035 ft 463 kts 77°
2026-04-26 18:12 18.76552 166.18451 37027 ft 463 kts 77°
2026-04-26 18:13 18.77743 166.25126 37027 ft 463 kts 77°
2026-04-26 18:13 18.78932 166.31799 37036 ft 463 kts 77°
2026-04-26 18:14 18.80119 166.38477 37023 ft 463 kts 77°
2026-04-26 18:14 18.81303 166.45155 37033 ft 463 kts 77°
2026-04-26 18:15 18.82478 166.51793 37031 ft 463 kts 77°
2026-04-26 18:15 18.83658 166.58473 37024 ft 463 kts 77°
2026-04-26 18:16 18.84836 166.65155 37037 ft 463 kts 77°
2026-04-26 18:16 18.86578 166.75174 37023 ft 462 kts 77°
2026-04-26 18:17 18.87730 166.81854 37037 ft 463 kts 77°
2026-04-26 18:17 18.88880 166.88540 37028 ft 462 kts 77°
2026-04-26 18:18 18.90027 166.95222 37027 ft 462 kts 77°
2026-04-26 18:18 18.91172 167.01905 37036 ft 462 kts 77°
2026-04-26 18:19 18.92315 167.08592 37024 ft 463 kts 77°
2026-04-26 18:19 18.93457 167.15278 37034 ft 462 kts 77°
2026-04-26 18:20 18.94594 167.21952 37030 ft 462 kts 77°
2026-04-26 18:20 18.95536 167.27502 37023 ft 462 kts 77°
2026-04-26 18:21 18.96859 167.35310 37036 ft 462 kts 77°
2026-04-26 18:21 18.97986 167.41998 37024 ft 462 kts 77°
2026-04-26 18:22 18.99107 167.48676 37029 ft 462 kts 77°
2026-04-26 18:22 19.00230 167.55362 37033 ft 462 kts 77°
2026-04-26 18:23 19.01351 167.62044 37021 ft 462 kts 78°
2026-04-26 18:23 19.02471 167.68730 37033 ft 462 kts 77°
2026-04-26 18:24 19.03588 167.75419 37027 ft 462 kts 77°
2026-04-26 18:24 19.04701 167.82098 37020 ft 461 kts 77°
2026-04-26 18:25 19.05808 167.88733 37032 ft 462 kts 77°
2026-04-26 18:25 19.06921 167.95429 37021 ft 462 kts 77°
2026-04-26 18:26 19.08029 168.02120 37025 ft 462 kts 77°
2026-04-26 18:26 19.09128 168.08778 37025 ft 459 kts 77°
2026-04-26 18:27 19.10225 168.15434 37018 ft 460 kts 77°
2026-04-26 18:27 19.11320 168.22091 37030 ft 460 kts 77°
2026-04-26 18:28 19.12418 168.28782 37043 ft 464 kts 77°
2026-04-26 18:28 19.13516 168.35496 37045 ft 463 kts 77°
2026-04-26 18:29 19.14610 168.42203 37034 ft 463 kts 78°
2026-04-26 18:29 19.15699 168.48914 37047 ft 463 kts 77°
2026-04-26 18:30 19.16787 168.55609 37036 ft 461 kts 78°
2026-04-26 18:30 19.17873 168.62301 37038 ft 462 kts 77°
2026-04-26 18:31 19.18950 168.68957 37044 ft 462 kts 78°
2026-04-26 18:31 19.20031 168.75659 37031 ft 462 kts 78°
2026-04-26 18:32 19.21110 168.82362 37041 ft 462 kts 78°
2026-04-26 18:32 19.22187 168.89066 37036 ft 462 kts 78°
2026-04-26 18:33 19.23258 168.95757 37028 ft 461 kts 78°
2026-04-26 18:33 19.24327 169.02448 37042 ft 461 kts 78°
2026-04-26 18:34 19.25394 169.09138 37029 ft 461 kts 78°
2026-04-26 18:34 19.26457 169.15826 37033 ft 461 kts 78°
2026-04-26 18:35 19.27518 169.22515 37036 ft 461 kts 78°
2026-04-26 18:35 19.28577 169.29208 37024 ft 461 kts 78°
2026-04-26 18:36 19.29632 169.35892 37035 ft 460 kts 78°
2026-04-26 18:36 19.30684 169.42571 37028 ft 460 kts 78°
2026-04-26 18:37 19.31733 169.49251 37039 ft 460 kts 78°
2026-04-26 18:37 19.32781 169.55938 37040 ft 461 kts 78°
2026-04-26 18:38 19.33826 169.62623 37029 ft 460 kts 78°
2026-04-26 18:38 19.34868 169.69305 37041 ft 460 kts 78°
2026-04-26 18:39 19.35908 169.75990 37033 ft 460 kts 78°
2026-04-26 18:39 19.36945 169.82673 37030 ft 460 kts 78°
2026-04-26 18:40 19.37973 169.89313 37040 ft 460 kts 78°
2026-04-26 18:40 19.39005 169.95999 37027 ft 460 kts 78°
2026-04-26 18:41 19.40034 170.02683 37035 ft 459 kts 78°
2026-04-26 18:41 19.41060 170.09358 37033 ft 459 kts 78°
2026-04-26 18:42 19.42083 170.16037 37024 ft 459 kts 78°
2026-04-26 18:42 19.43104 170.22714 37036 ft 459 kts 78°
2026-04-26 18:43 19.44122 170.29395 37026 ft 459 kts 78°
2026-04-26 18:43 19.45138 170.36074 37026 ft 459 kts 78°
2026-04-26 18:44 19.46151 170.42755 37034 ft 459 kts 78°
2026-04-26 18:44 19.47162 170.49437 37021 ft 459 kts 78°
2026-04-26 18:45 19.48172 170.56123 37030 ft 459 kts 78°
2026-04-26 18:45 19.49180 170.62807 37027 ft 459 kts 78°
2026-04-26 18:46 19.50182 170.69481 37017 ft 458 kts 78°
2026-04-26 18:46 19.51182 170.76155 37031 ft 459 kts 78°
2026-04-26 18:47 19.52173 170.82789 37020 ft 459 kts 78°
2026-04-26 18:47 19.53168 170.89466 37021 ft 459 kts 78°
2026-04-26 18:48 19.54161 170.96145 37028 ft 459 kts 78°
2026-04-26 18:48 19.55151 171.02827 37014 ft 459 kts 78°
2026-04-26 18:49 19.56136 171.09495 37023 ft 458 kts 78°
2026-04-26 18:49 19.57120 171.16165 37021 ft 458 kts 78°
2026-04-26 18:50 19.58102 171.22838 37013 ft 458 kts 78°
2026-04-26 18:50 19.58915 171.28381 37025 ft 458 kts 78°
2026-04-26 18:51 19.59891 171.35051 37032 ft 457 kts 78°
2026-04-26 18:51 19.60863 171.41711 37018 ft 457 kts 78°
2026-04-26 18:52 19.61833 171.48371 37030 ft 457 kts 78°
2026-04-26 18:52 19.62801 171.55034 37024 ft 457 kts 78°
2026-04-26 18:53 19.63765 171.61692 37018 ft 458 kts 78°
2026-04-26 18:53 19.64729 171.68364 37029 ft 458 kts 78°
2026-04-26 18:54 19.65690 171.75036 37016 ft 457 kts 78°
2026-04-26 18:54 19.66646 171.81693 37022 ft 457 kts 78°
2026-04-26 18:55 19.67601 171.88355 37024 ft 457 kts 78°
2026-04-26 18:55 19.68554 171.95019 37013 ft 457 kts 78°
2026-04-26 18:56 19.69503 172.01682 37025 ft 457 kts 78°
2026-04-26 18:56 19.70449 172.08350 37016 ft 457 kts 78°
2026-04-26 18:57 19.71231 172.13888 37013 ft 457 kts 78°
2026-04-26 18:57 19.72332 172.21682 37024 ft 457 kts 78°
2026-04-26 18:58 19.73265 172.28302 37010 ft 457 kts 78°
2026-04-26 18:58 19.74204 172.34970 37017 ft 457 kts 78°
2026-04-26 18:59 19.75142 172.41638 37017 ft 457 kts 78°
2026-04-26 18:59 19.76075 172.48297 37004 ft 456 kts 78°
2026-04-26 19:00 19.77005 172.54961 37019 ft 457 kts 78°
2026-04-26 19:00 19.77932 172.61629 37009 ft 456 kts 78°
2026-04-26 19:01 19.78856 172.68291 37008 ft 456 kts 78°
2026-04-26 19:01 19.79777 172.74957 37018 ft 457 kts 78°
2026-04-26 19:02 19.80696 172.81624 37004 ft 456 kts 78°
2026-04-26 19:02 19.81456 172.87154 37007 ft 455 kts 78°
2026-04-26 19:03 19.82523 172.94925 37015 ft 455 kts 78°
2026-04-26 19:03 19.83432 173.01574 37029 ft 455 kts 78°
2026-04-26 19:04 19.84333 173.08183 37022 ft 455 kts 78°
2026-04-26 19:04 19.85237 173.14834 37020 ft 454 kts 78°
2026-04-26 19:05 19.86588 173.24801 37026 ft 455 kts 79°
2026-04-26 19:06 19.87474 173.31444 37018 ft 454 kts 79°
2026-04-26 19:06 19.88333 173.38085 37029 ft 454 kts 79°
2026-04-26 19:07 19.89186 173.44729 37021 ft 454 kts 79°
2026-04-26 19:07 19.90036 173.51372 37019 ft 454 kts 79°
2026-04-26 19:08 19.90884 173.58013 37028 ft 454 kts 79°
2026-04-26 19:08 19.91730 173.64660 37015 ft 454 kts 79°
2026-04-26 19:09 19.92573 173.71302 37023 ft 454 kts 79°
2026-04-26 19:09 19.93413 173.77941 37022 ft 453 kts 79°
2026-04-26 19:10 19.94244 173.84528 37014 ft 453 kts 79°
2026-04-26 19:10 19.95084 173.91204 37026 ft 453 kts 79°
2026-04-26 19:11 19.95916 173.97842 37014 ft 453 kts 79°
2026-04-26 19:11 19.96739 174.04431 37017 ft 453 kts 79°
2026-04-26 19:12 19.97575 174.11112 37022 ft 453 kts 79°
2026-04-26 19:12 19.98398 174.17706 37009 ft 453 kts 79°
2026-04-26 19:13 19.99220 174.24341 37019 ft 453 kts 79°
2026-04-26 19:13 20.00042 174.30991 37016 ft 454 kts 79°
2026-04-26 19:14 20.00859 174.37639 37007 ft 453 kts 79°
2026-04-26 19:14 20.01674 174.44290 37020 ft 454 kts 79°
2026-04-26 19:15 20.02488 174.50952 37010 ft 454 kts 79°
2026-04-26 19:15 20.03299 174.57611 37010 ft 454 kts 79°
2026-04-26 19:16 20.04110 174.64275 37018 ft 455 kts 79°
2026-04-26 19:16 20.04919 174.70943 37004 ft 454 kts 79°
2026-04-26 19:17 20.05725 174.77619 37015 ft 456 kts 79°
2026-04-26 19:17 20.06529 174.84301 37011 ft 455 kts 79°
2026-04-26 19:18 20.07330 174.90982 37004 ft 455 kts 79°
2026-04-26 19:18 20.08129 174.97663 37016 ft 455 kts 79°
2026-04-26 19:19 20.08925 175.04343 37004 ft 455 kts 79°
2026-04-26 19:19 20.09719 175.11025 37008 ft 455 kts 79°
2026-04-26 19:20 20.10510 175.17708 37012 ft 455 kts 79°
2026-04-26 19:20 20.11299 175.24393 37000 ft 455 kts 79°
2026-04-26 19:21 20.12085 175.31075 37012 ft 455 kts 79°
2026-04-26 19:21 20.12867 175.37748 37003 ft 454 kts 79°
2026-04-26 19:22 20.13642 175.44371 37000 ft 455 kts 79°
2026-04-26 19:22 20.14420 175.51049 37011 ft 455 kts 79°
2026-04-26 19:23 20.15197 175.57730 36997 ft 455 kts 79°
2026-04-26 19:23 20.15969 175.64405 37006 ft 454 kts 80°
2026-04-26 19:24 20.16739 175.71085 37004 ft 455 kts 80°
2026-04-26 19:24 20.17887 175.81095 37003 ft 453 kts 80°
2026-04-26 19:25 20.18397 175.85551 37008 ft 454 kts 79°
2026-04-26 19:25 20.19410 175.94423 36993 ft 453 kts 80°
2026-04-26 19:26 20.20167 176.01090 37005 ft 454 kts 80°
2026-04-26 19:26 20.20921 176.07756 36997 ft 454 kts 80°
2026-04-26 19:27 20.21673 176.14425 36995 ft 453 kts 80°
2026-04-26 19:27 20.22423 176.21094 37004 ft 454 kts 80°
2026-04-26 19:28 20.23171 176.27772 36992 ft 455 kts 80°
2026-04-26 19:28 20.23917 176.34456 37000 ft 454 kts 80°
2026-04-26 19:29 20.24660 176.41139 36999 ft 455 kts 80°
2026-04-26 19:29 20.25401 176.47823 36989 ft 454 kts 80°
2026-04-26 19:30 20.26140 176.54508 37002 ft 455 kts 80°
2026-04-26 19:30 20.26751 176.60064 36994 ft 455 kts 80°
2026-04-26 19:31 20.27604 176.67835 36992 ft 454 kts 80°
2026-04-26 19:31 20.28335 176.74519 37000 ft 455 kts 80°
2026-04-26 19:32 20.29062 176.81204 36987 ft 453 kts 80°
2026-04-26 19:32 20.29786 176.87878 36994 ft 454 kts 80°
2026-04-26 19:33 20.30511 176.94567 36995 ft 455 kts 80°
2026-04-26 19:33 20.31231 177.01257 36984 ft 454 kts 80°
2026-04-26 19:34 20.31949 177.07945 36997 ft 455 kts 80°
2026-04-26 19:34 20.32665 177.14638 36987 ft 455 kts 80°
2026-04-26 19:35 20.33378 177.21327 36987 ft 454 kts 80°
2026-04-26 19:35 20.34087 177.28008 36994 ft 453 kts 80°
2026-04-26 19:36 20.34554 177.32425 36984 ft 453 kts 80°
2026-04-26 19:36 20.35493 177.41322 36993 ft 454 kts 80°
2026-04-26 19:37 20.36196 177.48008 36985 ft 454 kts 81°
2026-04-26 19:37 20.36894 177.54687 36982 ft 454 kts 81°
2026-04-26 19:38 20.37590 177.61371 36996 ft 454 kts 81°
2026-04-26 19:38 20.38283 177.68045 36988 ft 452 kts 81°
2026-04-26 19:39 20.38972 177.74706 36987 ft 452 kts 81°
2026-04-26 19:39 20.39548 177.80292 36996 ft 453 kts 81°
2026-04-26 19:40 20.40233 177.86960 36983 ft 452 kts 81°
2026-04-26 19:40 20.40915 177.93625 36988 ft 452 kts 81°
2026-04-26 19:41 20.41595 178.00295 36990 ft 453 kts 81°
2026-04-26 19:41 20.42158 178.05832 36979 ft 452 kts 81°
2026-04-26 19:42 20.42946 178.13618 36992 ft 452 kts 81°
2026-04-26 19:42 20.43613 178.20244 36984 ft 453 kts 81°
2026-04-26 19:43 20.44283 178.26918 36981 ft 452 kts 81°
2026-04-26 19:43 20.44952 178.33594 36991 ft 454 kts 81°
2026-04-26 19:44 20.45618 178.40283 36978 ft 453 kts 81°
2026-04-26 19:44 20.46281 178.46977 36984 ft 454 kts 81°
2026-04-26 19:45 20.46943 178.53671 36984 ft 454 kts 81°
2026-04-26 19:45 20.47602 178.60368 36974 ft 454 kts 81°
2026-04-26 19:46 20.48259 178.67067 36986 ft 455 kts 81°
2026-04-26 19:46 20.48916 178.73786 36977 ft 455 kts 81°
2026-04-26 19:47 20.49459 178.79367 36973 ft 455 kts 81°
2026-04-26 19:47 20.50220 178.87220 36984 ft 456 kts 81°
2026-04-26 19:48 20.50869 178.93950 36971 ft 456 kts 81°
2026-04-26 19:48 20.51515 179.00676 36979 ft 456 kts 81°
2026-04-26 19:49 20.52159 179.07404 36979 ft 456 kts 81°
2026-04-26 19:49 20.52796 179.14089 36969 ft 456 kts 81°
2026-04-26 19:50 20.53437 179.20830 36982 ft 458 kts 81°
2026-04-26 19:50 20.54074 179.27581 36987 ft 457 kts 81°
2026-04-26 19:51 20.54710 179.34334 37001 ft 457 kts 81°
2026-04-26 19:51 20.55343 179.41088 36982 ft 457 kts 81°
2026-04-26 19:52 20.55973 179.47839 36970 ft 457 kts 81°
2026-04-26 19:52 20.56602 179.54599 36983 ft 458 kts 81°
2026-04-26 19:53 20.57228 179.61369 36977 ft 458 kts 81°
2026-04-26 19:53 20.57850 179.68127 36972 ft 457 kts 81°
2026-04-26 19:54 20.58471 179.74881 36984 ft 458 kts 81°
2026-04-26 19:54 20.59089 179.81647 36970 ft 458 kts 81°
2026-04-26 19:55 20.59704 179.88409 36979 ft 458 kts 81°
2026-04-26 19:55 20.60318 179.95175 36996 ft 458 kts 81°
2026-04-26 19:56 20.60911 -179.98054 36991 ft 458 kts 82°
2026-04-26 19:56 20.61486 -179.91271 37021 ft 459 kts 82°
2026-04-26 19:57 20.62053 -179.84485 37053 ft 459 kts 82°
2026-04-26 19:57 20.62614 -179.77742 37085 ft 459 kts 82°
2026-04-26 19:58 20.63175 -179.70949 37115 ft 460 kts 82°
2026-04-26 19:58 20.63735 -179.64152 37147 ft 460 kts 82°
2026-04-26 19:59 20.64292 -179.57357 37177 ft 459 kts 82°
2026-04-26 19:59 20.64845 -179.50562 37213 ft 460 kts 82°
2026-04-26 20:00 20.65395 -179.43761 37239 ft 460 kts 82°
2026-04-26 20:00 20.65942 -179.36956 37254 ft 460 kts 82°
2026-04-26 20:01 20.66488 -179.30143 37251 ft 461 kts 82°
2026-04-26 20:01 20.67032 -179.23326 37245 ft 461 kts 82°
2026-04-26 20:02 20.67574 -179.16514 37257 ft 461 kts 82°
2026-04-26 20:02 20.68022 -179.10849 37248 ft 461 kts 82°
2026-04-26 20:03 20.68651 -179.02867 37251 ft 462 kts 82°
2026-04-26 20:03 20.69183 -178.96079 37255 ft 462 kts 82°
2026-04-26 20:04 20.69718 -178.89244 37243 ft 462 kts 82°
2026-04-26 20:04 20.70251 -178.82414 37256 ft 462 kts 82°
2026-04-26 20:05 20.70780 -178.75571 37249 ft 463 kts 82°
2026-04-26 20:05 20.71306 -178.68724 37246 ft 463 kts 82°
2026-04-26 20:06 20.71830 -178.61861 37258 ft 464 kts 82°
2026-04-26 20:06 20.72351 -178.54994 37245 ft 464 kts 82°
2026-04-26 20:07 20.72870 -178.48126 37253 ft 464 kts 82°
2026-04-26 20:07 20.73387 -178.41250 37253 ft 464 kts 82°
2026-04-26 20:08 20.73900 -178.34374 37244 ft 464 kts 82°
2026-04-26 20:08 20.74411 -178.27492 37257 ft 465 kts 82°
2026-04-26 20:09 20.74921 -178.20607 37247 ft 466 kts 82°
2026-04-26 20:09 20.75425 -178.13756 37250 ft 465 kts 82°
2026-04-26 20:10 20.75928 -178.06863 37256 ft 466 kts 82°
2026-04-26 20:10 20.76430 -177.99967 37244 ft 465 kts 82°
2026-04-26 20:11 20.76932 -177.93048 37255 ft 469 kts 83°
2026-04-26 20:12 20.77678 -177.82633 37244 ft 468 kts 83°
2026-04-26 20:12 20.78172 -177.75696 37254 ft 468 kts 83°
2026-04-26 20:13 20.78665 -177.68752 37252 ft 469 kts 83°
2026-04-26 20:13 20.79155 -177.61800 37244 ft 469 kts 83°
2026-04-26 20:14 20.79642 -177.54852 37257 ft 469 kts 83°
2026-04-26 20:14 20.80126 -177.47896 37247 ft 469 kts 83°
2026-04-26 20:15 20.80608 -177.40942 37249 ft 469 kts 83°
2026-04-26 20:15 20.81088 -177.33974 37256 ft 471 kts 83°
2026-04-26 20:16 20.81562 -177.26995 37235 ft 471 kts 83°
2026-04-26 20:16 20.82036 -177.20014 37232 ft 471 kts 83°
2026-04-26 20:17 20.82510 -177.13026 37244 ft 472 kts 83°
2026-04-26 20:17 20.82977 -177.06072 37232 ft 472 kts 83°
2026-04-26 20:18 20.83445 -176.99066 37237 ft 473 kts 83°
2026-04-26 20:18 20.83911 -176.92045 37239 ft 474 kts 83°
2026-04-26 20:19 20.84378 -176.85010 37229 ft 474 kts 83°
2026-04-26 20:19 20.84840 -176.77972 37242 ft 475 kts 83°
2026-04-26 20:20 20.85300 -176.70918 37234 ft 475 kts 83°
2026-04-26 20:20 20.85757 -176.63865 37233 ft 476 kts 83°
2026-04-26 20:21 20.86211 -176.56802 37243 ft 477 kts 83°
2026-04-26 20:21 20.86664 -176.49719 37230 ft 478 kts 83°
2026-04-26 20:22 20.87114 -176.42632 37238 ft 478 kts 83°
2026-04-26 20:22 20.87562 -176.35532 37239 ft 479 kts 83°
2026-04-26 20:23 20.88005 -176.28427 37228 ft 479 kts 84°
2026-04-26 20:23 20.88444 -176.21325 37240 ft 479 kts 84°
2026-04-26 20:24 20.88882 -176.14213 37233 ft 479 kts 84°
2026-04-26 20:24 20.89321 -176.07101 37231 ft 479 kts 83°
2026-04-26 20:25 20.89758 -175.99992 37244 ft 480 kts 83°
2026-04-26 20:25 20.90191 -175.92897 37233 ft 484 kts 84°
2026-04-26 20:26 20.90622 -175.85713 37235 ft 483 kts 84°
2026-04-26 20:26 20.91047 -175.78550 37243 ft 483 kts 84°
2026-04-26 20:27 20.91471 -175.71382 37231 ft 483 kts 84°
2026-04-26 20:27 20.91893 -175.64218 37239 ft 483 kts 84°
2026-04-26 20:28 20.92313 -175.57053 37242 ft 483 kts 84°
2026-04-26 20:28 20.92729 -175.49883 37251 ft 483 kts 84°
2026-04-26 20:29 20.93073 -175.43922 37247 ft 483 kts 84°
2026-04-26 20:29 20.93484 -175.36752 37239 ft 483 kts 84°
2026-04-26 20:30 20.93892 -175.29579 37252 ft 483 kts 84°
2026-04-26 20:30 20.94297 -175.22405 37241 ft 483 kts 84°
2026-04-26 20:31 20.94698 -175.15235 37244 ft 483 kts 84°
2026-04-26 20:31 20.95097 -175.08062 37235 ft 483 kts 84°
2026-04-26 20:32 20.95495 -175.00885 37218 ft 483 kts 84°
2026-04-26 20:32 20.95890 -174.93704 37220 ft 484 kts 84°
2026-04-26 20:33 20.96281 -174.86516 37225 ft 484 kts 84°
2026-04-26 20:33 20.96668 -174.79328 37213 ft 484 kts 84°
2026-04-26 20:34 20.97053 -174.72136 37224 ft 485 kts 84°
2026-04-26 20:34 20.97435 -174.64935 37219 ft 485 kts 84°
2026-04-26 20:35 20.97811 -174.57735 37214 ft 485 kts 84°
2026-04-26 20:35 20.98186 -174.50536 37225 ft 485 kts 84°
2026-04-26 20:36 20.98559 -174.43333 37213 ft 485 kts 84°
2026-04-26 20:36 20.98929 -174.36132 37218 ft 485 kts 84°
2026-04-26 20:37 20.99293 -174.28975 37222 ft 485 kts 84°
2026-04-26 20:37 20.99659 -174.21768 37209 ft 485 kts 84°
2026-04-26 20:38 21.00023 -174.14562 37220 ft 485 kts 84°
2026-04-26 20:38 21.00382 -174.07353 37216 ft 485 kts 84°
2026-04-26 20:39 21.00737 -174.00147 37210 ft 485 kts 84°
2026-04-26 20:39 21.01092 -173.92924 37222 ft 488 kts 85°
2026-04-26 20:40 21.01443 -173.85675 37209 ft 487 kts 85°
2026-04-26 20:40 21.01789 -173.78429 37212 ft 488 kts 85°
2026-04-26 20:41 21.02130 -173.71183 37217 ft 488 kts 85°
2026-04-26 20:41 21.02469 -173.63932 37205 ft 488 kts 85°
2026-04-26 20:42 21.02807 -173.56680 37216 ft 488 kts 85°
2026-04-26 20:42 21.03144 -173.49422 37210 ft 488 kts 85°
2026-04-26 20:43 21.03476 -173.42165 37205 ft 488 kts 85°
2026-04-26 20:43 21.03804 -173.34957 37217 ft 489 kts 85°
2026-04-26 20:44 21.04131 -173.27690 37205 ft 489 kts 85°
2026-04-26 20:44 21.04459 -173.20423 37209 ft 489 kts 85°
2026-04-26 20:45 21.04784 -173.13143 37212 ft 490 kts 85°
2026-04-26 20:45 21.05103 -173.05862 37200 ft 490 kts 85°
2026-04-26 20:46 21.05418 -172.98576 37212 ft 490 kts 85°
2026-04-26 20:46 21.05731 -172.91283 37205 ft 491 kts 85°
2026-04-26 20:47 21.06041 -172.83985 37201 ft 491 kts 85°
2026-04-26 20:47 21.06347 -172.76683 37212 ft 491 kts 85°
2026-04-26 20:48 21.06651 -172.69376 37199 ft 491 kts 85°
2026-04-26 20:48 21.06952 -172.62063 37206 ft 492 kts 85°
2026-04-26 20:49 21.07251 -172.54749 37205 ft 492 kts 85°
2026-04-26 20:49 21.07546 -172.47430 37196 ft 492 kts 86°
2026-04-26 20:50 21.07837 -172.40109 37209 ft 492 kts 86°
2026-04-26 20:50 21.08124 -172.32835 37199 ft 492 kts 86°
2026-04-26 20:51 21.08410 -172.25510 37199 ft 493 kts 86°
2026-04-26 20:51 21.08693 -172.18183 37206 ft 493 kts 86°
2026-04-26 20:52 21.08972 -172.10852 37193 ft 493 kts 86°
2026-04-26 20:52 21.09249 -172.03520 37203 ft 493 kts 86°
2026-04-26 20:53 21.09499 -171.96185 37197 ft 494 kts 86°
2026-04-26 20:53 21.09731 -171.88804 37189 ft 496 kts 86°
2026-04-26 20:54 21.09951 -171.81422 37199 ft 496 kts 86°
2026-04-26 20:54 21.10169 -171.74039 37192 ft 496 kts 86°
2026-04-26 20:55 21.10383 -171.66652 37188 ft 496 kts 87°
2026-04-26 20:55 21.10592 -171.59261 37198 ft 497 kts 87°
2026-04-26 20:56 21.10800 -171.51862 37185 ft 497 kts 87°
2026-04-26 20:56 21.11006 -171.44463 37192 ft 497 kts 87°
2026-04-26 20:57 21.11209 -171.37056 37193 ft 498 kts 87°
2026-04-26 20:57 21.11410 -171.29640 37182 ft 498 kts 87°
2026-04-26 20:58 21.11608 -171.22233 37194 ft 498 kts 87°
2026-04-26 20:58 21.11801 -171.14820 37186 ft 498 kts 87°
2026-04-26 20:59 21.11992 -171.07399 37183 ft 498 kts 87°
2026-04-26 20:59 21.12179 -170.99977 37193 ft 499 kts 87°
2026-04-26 21:00 21.12363 -170.92551 37180 ft 499 kts 87°
2026-04-26 21:00 21.12543 -170.85121 37187 ft 499 kts 87°
2026-04-26 21:01 21.12719 -170.77674 37188 ft 500 kts 88°
2026-04-26 21:01 21.12889 -170.70225 37177 ft 500 kts 88°
2026-04-26 21:02 21.13059 -170.62774 37189 ft 501 kts 88°
2026-04-26 21:02 21.13228 -170.55363 37180 ft 501 kts 88°
2026-04-26 21:03 21.13397 -170.47908 37179 ft 501 kts 88°
2026-04-26 21:03 21.13560 -170.40448 37187 ft 501 kts 88°
2026-04-26 21:04 21.13719 -170.32988 37174 ft 501 kts 88°
2026-04-26 21:04 21.13875 -170.25500 37409 ft 504 kts 88°
2026-04-26 21:04 21.13951 -170.21750 37781 ft 503 kts 88°
2026-04-26 21:05 21.14025 -170.18001 38089 ft 503 kts 88°
2026-04-26 21:05 21.14100 -170.14253 38401 ft 503 kts 88°
2026-04-26 21:05 21.14173 -170.10511 38694 ft 502 kts 88°
2026-04-26 21:05 21.14246 -170.06769 38958 ft 502 kts 88°
2026-04-26 21:06 21.14319 -170.03029 39127 ft 503 kts 88°
2026-04-26 21:06 21.14462 -169.95546 39164 ft 503 kts 88°
2026-04-26 21:07 21.14602 -169.88044 39179 ft 504 kts 88°
2026-04-26 21:07 21.14738 -169.80546 39177 ft 503 kts 88°
2026-04-26 21:08 21.14870 -169.73051 39167 ft 504 kts 88°
2026-04-26 21:08 21.15000 -169.65539 39181 ft 505 kts 88°
2026-04-26 21:09 21.15127 -169.58024 39169 ft 504 kts 88°
2026-04-26 21:09 21.15250 -169.50510 39173 ft 505 kts 88°
2026-04-26 21:10 21.15369 -169.43045 39177 ft 505 kts 88°
2026-04-26 21:10 21.15486 -169.35527 39164 ft 505 kts 88°
2026-04-26 21:11 21.15599 -169.27995 39177 ft 506 kts 88°
2026-04-26 21:11 21.15710 -169.20460 39168 ft 506 kts 88°
2026-04-26 21:12 21.15818 -169.12927 39166 ft 506 kts 88°
2026-04-26 21:12 21.15923 -169.05393 39176 ft 506 kts 88°
2026-04-26 21:13 21.16024 -168.97850 39163 ft 507 kts 88°
2026-04-26 21:13 21.16120 -168.90303 39170 ft 507 kts 89°
2026-04-26 21:14 21.16213 -168.82752 39170 ft 507 kts 89°
2026-04-26 21:14 21.16303 -168.75201 39160 ft 507 kts 89°
2026-04-26 21:15 21.16390 -168.67655 39173 ft 507 kts 89°
2026-04-26 21:15 21.16474 -168.60103 39162 ft 507 kts 89°
2026-04-26 21:16 21.16554 -168.52557 39166 ft 507 kts 89°
2026-04-26 21:16 21.16619 -168.46281 39182 ft 507 kts 89°
2026-04-26 21:17 21.16694 -168.38715 39183 ft 508 kts 89°
2026-04-26 21:17 21.16765 -168.31151 39172 ft 507 kts 89°
2026-04-26 21:18 21.16832 -168.23593 39185 ft 507 kts 89°
2026-04-26 21:18 21.16897 -168.16048 39175 ft 506 kts 89°
2026-04-26 21:19 21.16957 -168.08502 39176 ft 506 kts 89°
2026-04-26 21:19 21.17015 -168.00956 39183 ft 507 kts 89°
2026-04-26 21:20 21.17069 -167.93393 39170 ft 509 kts 89°
2026-04-26 21:20 21.17120 -167.85814 39181 ft 508 kts 89°
2026-04-26 21:21 21.17168 -167.78240 39175 ft 509 kts 89°
2026-04-26 21:21 21.17212 -167.70665 39170 ft 508 kts 89°
2026-04-26 21:22 21.17252 -167.63138 39181 ft 510 kts 89°
2026-04-26 21:22 21.17289 -167.55542 39169 ft 510 kts 89°
2026-04-26 21:23 21.17338 -167.44156 39180 ft 510 kts 89°
2026-04-26 21:23 21.17367 -167.36557 39169 ft 511 kts 89°
2026-04-26 21:24 21.17393 -167.28950 39171 ft 511 kts 89°
2026-04-26 21:24 21.17415 -167.21340 39178 ft 511 kts 89°
2026-04-26 21:25 21.17434 -167.13732 39165 ft 511 kts 89°
2026-04-26 21:25 21.17449 -167.06116 39176 ft 512 kts 89°
2026-04-26 21:26 21.17462 -166.98489 39171 ft 512 kts 89°
2026-04-26 21:26 21.17470 -166.90868 39165 ft 511 kts 89°
2026-04-26 21:27 21.17476 -166.83246 39177 ft 512 kts 89°
2026-04-26 21:27 21.17478 -166.75623 39165 ft 512 kts 89°
2026-04-26 21:28 21.17476 -166.67999 39171 ft 512 kts 89°
2026-04-26 21:28 21.17471 -166.60375 39175 ft 512 kts 90°
2026-04-26 21:29 21.17463 -166.52752 39163 ft 511 kts 90°
2026-04-26 21:29 21.17451 -166.45134 39175 ft 512 kts 90°
2026-04-26 21:30 21.17436 -166.37511 39168 ft 512 kts 90°
2026-04-26 21:30 21.17417 -166.29890 39165 ft 511 kts 90°
2026-04-26 21:31 21.17395 -166.22272 39176 ft 512 kts 90°
2026-04-26 21:31 21.17370 -166.14649 39163 ft 511 kts 90°
2026-04-26 21:32 21.17341 -166.07030 39169 ft 511 kts 90°
2026-04-26 21:32 21.17308 -165.99413 39171 ft 512 kts 90°
2026-04-26 21:33 21.17272 -165.91795 39159 ft 512 kts 90°
2026-04-26 21:33 21.17235 -165.84213 39173 ft 512 kts 90°
2026-04-26 21:34 21.17194 -165.76579 39163 ft 512 kts 90°
2026-04-26 21:34 21.17148 -165.68948 39161 ft 512 kts 90°
2026-04-26 21:35 21.17099 -165.61318 39171 ft 512 kts 90°
2026-04-26 21:35 21.17045 -165.53685 39157 ft 512 kts 90°
2026-04-26 21:36 21.16997 -165.47281 39165 ft 513 kts 90°
2026-04-26 21:36 21.16928 -165.38392 39164 ft 513 kts 90°
2026-04-26 21:37 21.16864 -165.30745 39157 ft 513 kts 90°
2026-04-26 21:37 21.16798 -165.23099 39170 ft 513 kts 90°
2026-04-26 21:38 21.16728 -165.15439 39158 ft 514 kts 90°
2026-04-26 21:38 21.16654 -165.07777 39162 ft 514 kts 90°
2026-04-26 21:39 21.16578 -165.00118 39166 ft 514 kts 90°
2026-04-26 21:39 21.16498 -164.92457 39154 ft 514 kts 90°
2026-04-26 21:40 21.16415 -164.84801 39166 ft 514 kts 90°
2026-04-26 21:40 21.16327 -164.77137 39160 ft 514 kts 90°
2026-04-26 21:41 21.16236 -164.69479 39156 ft 514 kts 90°
2026-04-26 21:41 21.16142 -164.61823 39167 ft 514 kts 90°
2026-04-26 21:42 21.16044 -164.54162 39155 ft 514 kts 90°
2026-04-26 21:42 21.15943 -164.46505 39161 ft 514 kts 90°
2026-04-26 21:43 21.15838 -164.38847 39163 ft 514 kts 90°
2026-04-26 21:43 21.15730 -164.31190 39152 ft 514 kts 90°
2026-04-26 21:44 21.15618 -164.23534 39165 ft 514 kts 90°
2026-04-26 21:44 21.15503 -164.15878 39157 ft 514 kts 90°
2026-04-26 21:45 21.15385 -164.08275 39155 ft 514 kts 90°
2026-04-26 21:45 21.15264 -164.00620 39165 ft 514 kts 90°
2026-04-26 21:46 21.15123 -163.92960 39153 ft 515 kts 90°
2026-04-26 21:46 21.14930 -163.85290 39160 ft 515 kts 91°
2026-04-26 21:47 21.14711 -163.77626 39161 ft 515 kts 91°
2026-04-26 21:47 21.14479 -163.69961 39151 ft 515 kts 91°
2026-04-26 21:48 21.14246 -163.62299 39164 ft 515 kts 91°
2026-04-26 21:48 21.14011 -163.54630 39154 ft 515 kts 91°
2026-04-26 21:49 21.13772 -163.46949 39156 ft 516 kts 91°
2026-04-26 21:49 21.13530 -163.39267 39163 ft 516 kts 91°
2026-04-26 21:50 21.13326 -163.32886 39151 ft 516 kts 91°
2026-04-26 21:50 21.13035 -163.23912 39161 ft 516 kts 91°
2026-04-26 21:51 21.12783 -163.16234 39156 ft 516 kts 91°
2026-04-26 21:51 21.12527 -163.08555 39151 ft 516 kts 91°
2026-04-26 21:52 21.12268 -163.00872 39163 ft 517 kts 91°
2026-04-26 21:52 21.12004 -162.93177 39151 ft 517 kts 91°
2026-04-26 21:53 21.11744 -162.85490 39156 ft 517 kts 91°
2026-04-26 21:53 21.11535 -162.77796 39160 ft 517 kts 91°
2026-04-26 21:54 21.11350 -162.70156 39148 ft 517 kts 91°
2026-04-26 21:54 21.11166 -162.62463 39161 ft 517 kts 91°
2026-04-26 21:55 21.10977 -162.54771 39154 ft 517 kts 91°
2026-04-26 21:55 21.10785 -162.47081 39151 ft 516 kts 91°
2026-04-26 21:56 21.10589 -162.39394 39162 ft 517 kts 91°
2026-04-26 21:56 21.10390 -162.31701 39149 ft 516 kts 91°
2026-04-26 21:57 21.10187 -162.24014 39157 ft 516 kts 91°
2026-04-26 21:57 21.09982 -162.16325 39158 ft 517 kts 91°
2026-04-26 21:58 21.09776 -162.08638 39142 ft 516 kts 91°
2026-04-26 21:58 21.09564 -162.00951 39148 ft 516 kts 91°
2026-04-26 21:59 21.09346 -161.93264 39150 ft 516 kts 91°
2026-04-26 21:59 21.09126 -161.85582 39140 ft 516 kts 91°
2026-04-26 22:00 21.08902 -161.77899 39152 ft 516 kts 90°
2026-04-26 22:00 21.08676 -161.70217 39144 ft 516 kts 91°
2026-04-26 22:01 21.08446 -161.62536 39144 ft 516 kts 91°
2026-04-26 22:01 21.08212 -161.54857 39153 ft 516 kts 91°
2026-04-26 22:02 21.08015 -161.48459 39141 ft 517 kts 91°
2026-04-26 22:02 21.07731 -161.39518 39146 ft 517 kts 91°
2026-04-26 22:03 21.07476 -161.31822 39149 ft 517 kts 89°
2026-04-26 22:03 21.08011 -161.24179 39158 ft 515 kts 81°
2026-04-26 22:04 21.08854 -161.16565 39141 ft 515 kts 81°
2026-04-26 22:04 21.09486 -161.10187 39142 ft 513 kts 82°
2026-04-26 22:05 21.10174 -161.02571 39152 ft 514 kts 82°
2026-04-26 22:05 21.10842 -160.94943 38823 ft 516 kts 83°
2026-04-26 22:06 21.11171 -160.91161 38256 ft 516 kts 83°
2026-04-26 22:06 21.11501 -160.87293 37687 ft 513 kts 83°
2026-04-26 22:06 21.11819 -160.83552 37172 ft 509 kts 83°
2026-04-26 22:06 21.12140 -160.79791 36671 ft 505 kts 83°
2026-04-26 22:07 21.12460 -160.76066 36186 ft 500 kts 83°
2026-04-26 22:07 21.12777 -160.72384 35711 ft 494 kts 83°
2026-04-26 22:07 21.13091 -160.68735 35246 ft 489 kts 83°
2026-04-26 22:07 21.13402 -160.65122 34787 ft 485 kts 83°
2026-04-26 22:08 21.13709 -160.61536 34334 ft 482 kts 83°
2026-04-26 22:08 21.14016 -160.57954 33883 ft 486 kts 83°
2026-04-26 22:08 21.14327 -160.54329 33427 ft 492 kts 83°
2026-04-26 22:08 21.14640 -160.50661 32959 ft 496 kts 83°
2026-04-26 22:09 21.14952 -160.46988 32488 ft 494 kts 83°
2026-04-26 22:09 21.15261 -160.43332 32017 ft 492 kts 83°
2026-04-26 22:09 21.15569 -160.39687 31551 ft 489 kts 83°
2026-04-26 22:09 21.15872 -160.36074 31090 ft 484 kts 83°
2026-04-26 22:10 21.16170 -160.32502 30636 ft 479 kts 83°
2026-04-26 22:10 21.16415 -160.29566 30265 ft 475 kts 83°
2026-04-26 22:10 21.16707 -160.26064 29824 ft 470 kts 83°
2026-04-26 22:10 21.16996 -160.22598 29388 ft 465 kts 83°
2026-04-26 22:11 21.17284 -160.19155 28956 ft 463 kts 83°
2026-04-26 22:11 21.17570 -160.15721 28526 ft 462 kts 83°
2026-04-26 22:11 21.17853 -160.12300 28095 ft 460 kts 83°
2026-04-26 22:11 21.18134 -160.08900 27663 ft 457 kts 84°
2026-04-26 22:12 21.18412 -160.05523 27235 ft 454 kts 84°
2026-04-26 22:12 21.18688 -160.02166 26810 ft 451 kts 84°
2026-04-26 22:12 21.18962 -159.98829 26388 ft 448 kts 84°
2026-04-26 22:12 21.19232 -159.95517 25971 ft 445 kts 84°
2026-04-26 22:13 21.19501 -159.92221 25555 ft 443 kts 84°
2026-04-26 22:13 21.19768 -159.88945 25142 ft 440 kts 84°
2026-04-26 22:13 21.20029 -159.85730 24736 ft 438 kts 84°
2026-04-26 22:13 21.20289 -159.82511 24330 ft 435 kts 84°
2026-04-26 22:14 21.20552 -159.79268 23921 ft 433 kts 84°
2026-04-26 22:14 21.20812 -159.76063 23517 ft 430 kts 84°
2026-04-26 22:14 21.21068 -159.72876 23114 ft 428 kts 84°
2026-04-26 22:14 21.21320 -159.69711 22715 ft 425 kts 84°
2026-04-26 22:15 21.21571 -159.66566 22318 ft 422 kts 84°
2026-04-26 22:15 21.21820 -159.63441 21924 ft 420 kts 84°
2026-04-26 22:15 21.22067 -159.60334 21533 ft 417 kts 84°
2026-04-26 22:15 21.22312 -159.57246 21143 ft 415 kts 84°
2026-04-26 22:16 21.22555 -159.54178 20756 ft 412 kts 84°
2026-04-26 22:16 21.22797 -159.51122 20371 ft 410 kts 84°
2026-04-26 22:16 21.23036 -159.48084 19988 ft 408 kts 84°
2026-04-26 22:16 21.23274 -159.45064 19607 ft 406 kts 84°
2026-04-26 22:17 21.23511 -159.42062 19228 ft 403 kts 84°
2026-04-26 22:17 21.23746 -159.39074 18851 ft 401 kts 84°
2026-04-26 22:17 21.23979 -159.36103 18476 ft 399 kts 84°
2026-04-26 22:17 21.24209 -159.33148 18103 ft 397 kts 84°
2026-04-26 22:18 21.24439 -159.30211 17731 ft 394 kts 84°
2026-04-26 22:18 21.24666 -159.27294 17361 ft 391 kts 84°
2026-04-26 22:18 21.24889 -159.24401 16990 ft 389 kts 84°
2026-04-26 22:18 21.25111 -159.21515 16590 ft 387 kts 84°
2026-04-26 22:19 21.25331 -159.18649 16205 ft 385 kts 84°
2026-04-26 22:19 21.25551 -159.15798 15831 ft 382 kts 84°
2026-04-26 22:19 21.25769 -159.12968 15465 ft 380 kts 84°
2026-04-26 22:19 21.25985 -159.10156 15105 ft 377 kts 84°
2026-04-26 22:20 21.26198 -159.07362 14751 ft 375 kts 84°
2026-04-26 22:20 21.26411 -159.04586 14398 ft 373 kts 84°
2026-04-26 22:20 21.26621 -159.01821 14048 ft 371 kts 84°
2026-04-26 22:20 21.26830 -158.99071 13700 ft 370 kts 84°
2026-04-26 22:21 21.27038 -158.96331 13353 ft 368 kts 85°
2026-04-26 22:21 21.27243 -158.93618 13008 ft 362 kts 85°
2026-04-26 22:21 21.27442 -158.90969 12753 ft 352 kts 85°
2026-04-26 22:21 21.27638 -158.88359 12500 ft 352 kts 84°
2026-04-26 22:22 21.27834 -158.85766 12171 ft 344 kts 85°
2026-04-26 22:22 21.28021 -158.83267 11887 ft 328 kts 85°
2026-04-26 22:22 21.28200 -158.80884 11609 ft 313 kts 85°
2026-04-26 22:22 21.28370 -158.78605 11341 ft 300 kts 85°
2026-04-26 22:23 21.28534 -158.76420 11082 ft 288 kts 85°
2026-04-26 22:23 21.28691 -158.74304 10865 ft 283 kts 85°
2026-04-26 22:23 21.28847 -158.72211 10568 ft 281 kts 85°
2026-04-26 22:23 21.29001 -158.70132 10281 ft 279 kts 85°
2026-04-26 22:24 21.29154 -158.68074 10034 ft 275 kts 85°
2026-04-26 22:24 21.29303 -158.66041 9790 ft 272 kts 85°
2026-04-26 22:24 21.29452 -158.64028 9539 ft 270 kts 86°
2026-04-26 22:24 21.29599 -158.62033 9282 ft 268 kts 86°
2026-04-26 22:25 21.29745 -158.60044 9020 ft 267 kts 86°
2026-04-26 22:25 21.29892 -158.58055 8763 ft 268 kts 86°
2026-04-26 22:25 21.30038 -158.56064 8513 ft 268 kts 86°
2026-04-26 22:25 21.30184 -158.54080 8266 ft 266 kts 86°
2026-04-26 22:26 21.30328 -158.52110 8021 ft 264 kts 86°
2026-04-26 22:26 21.30471 -158.50151 7772 ft 263 kts 86°
2026-04-26 22:26 21.30613 -158.48206 7519 ft 261 kts 86°
2026-04-26 22:26 21.30754 -158.46272 7271 ft 259 kts 86°
2026-04-26 22:27 21.30892 -158.44351 7027 ft 257 kts 86°
2026-04-26 22:27 21.31031 -158.42447 6789 ft 255 kts 86°
2026-04-26 22:27 21.31166 -158.40584 6557 ft 253 kts 86°
2026-04-26 22:27 21.31305 -158.38685 6315 ft 251 kts 86°
2026-04-26 22:28 21.31438 -158.36847 6080 ft 250 kts 86°
2026-04-26 22:28 21.31572 -158.34968 5835 ft 249 kts 86°
2026-04-26 22:28 21.31776 -158.33129 5587 ft 249 kts 81°
2026-04-26 22:28 21.32112 -158.31315 5339 ft 246 kts 80°
2026-04-26 22:29 21.32367 -158.29522 5093 ft 240 kts 84°
2026-04-26 22:29 21.32501 -158.27825 5114 ft 225 kts 87°
2026-04-26 22:29 21.32563 -158.26183 5115 ft 220 kts 89°
2026-04-26 22:29 21.32568 -158.24512 5108 ft 227 kts 91°
2026-04-26 22:30 21.32532 -158.22813 5061 ft 228 kts 92°
2026-04-26 22:30 21.32501 -158.21126 4883 ft 224 kts 91°
2026-04-26 22:30 21.32495 -158.19487 4672 ft 214 kts 90°
2026-04-26 22:30 21.32520 -158.17916 4360 ft 208 kts 89°
2026-04-26 22:31 21.32545 -158.16375 4018 ft 205 kts 90°
2026-04-26 22:31 21.32548 -158.14860 3722 ft 201 kts 90°
2026-04-26 22:31 21.32527 -158.13434 3472 ft 195 kts 91°
2026-04-26 22:31 21.32509 -158.12037 3225 ft 192 kts 91°
2026-04-26 22:32 21.32508 -158.10611 2971 ft 191 kts 90°
2026-04-26 22:32 21.32528 -158.09203 2730 ft 189 kts 89°
2026-04-26 22:32 21.32540 -158.07792 2485 ft 189 kts 90°
2026-04-26 22:32 21.32532 -158.06405 2235 ft 181 kts 91°
2026-04-26 22:33 21.32519 -158.05109 1972 ft 167 kts 91°
2026-04-26 22:33 21.32522 -158.02725 1596 ft 158 kts 91°
2026-04-26 22:33 21.32531 -158.01552 1366 ft 157 kts 92°
2026-04-26 22:34 21.32529 -158.00386 1162 ft 155 kts 92°
2026-04-26 22:34 21.32520 -157.99248 953 ft 151 kts 89°
2026-04-26 22:34 21.32522 -157.98129 751 ft 150 kts 89°
2026-04-26 22:34 21.32527 -157.97001 555 ft 153 kts 89°
2026-04-26 22:35 21.32532 -157.95845 373 ft 156 kts 90°
2026-04-26 22:35 21.32527 -157.94690 174 ft 153 kts 90°
2026-04-26 22:35 21.32526 -157.93577 38 ft 139 kts 90°
2026-04-26 22:35 21.32525 -157.92697 27 ft 83 kts 90°
2026-04-26 22:36 21.32526 -157.92334 27 ft 30 kts 90°
2026-04-26 22:36 21.32527 -157.92108 27 ft 30 kts 90°
2026-04-26 22:36 21.32542 -157.91991 27 ft 8 kts 64°
2026-04-26 22:36 21.32583 -157.91949 27 ft 9 kts 26°
2026-04-26 22:37 21.32648 -157.91916 27 ft 8 kts 25°
2026-04-26 22:37 21.32689 -157.91920 27 ft 5 kts 296°
2026-04-26 22:37 21.32692 -157.91963 27 ft 4 kts 284°
2026-04-26 22:37 21.32712 -157.91976 27 ft 4 kts
2026-04-26 22:38 21.32754 -157.91975 27 ft 8 kts 337°
2026-04-26 22:38 21.32773 -157.92033 27 ft 8 kts 268°
2026-04-26 22:38 21.32777 -157.92096 27 ft 11 kts 289°
2026-04-26 22:38 21.32813 -157.92123 27 ft 6 kts 14°
2026-04-26 22:39 21.32837 -157.92104 27 ft 3 kts 42°
2026-04-26 22:39 21.32854 -157.92088 27 ft 5 kts 42°
2026-04-26 22:39 21.32874 -157.92068 27 ft 2 kts 41°
2026-04-26 22:39 21.32875 -157.92068 27 ft 0 kts 41°